www.pogodaiklimat.ru

Погода и климат >> Архив погоды >> Россия >> Сахалинская область >> Мыс Терпения


АРХИВ ПОГОДЫ на Мысе Терпения

Время (UTC), дата Ветер
(напр.,м/с)
 
Видим.   Явления Облачность Т
(С)
Тd
(С)
f
(%)
Тe
(С)
Тes
(С)
Комфортность P
(гПа)
Po
(гПа)
Тmin
(С)
Tmax
(С)
R
(мм)
R24
(мм)
S
(см)
09 10.07 ЮЗ 4-5
{5}
500 м туман ?/? +5.4 +4.9 97 +1 +1 1019.2 1018.3 +7.4
12 10.07 Ю 5-6
{6}
500 м туман ?/? +5.3 +4.9 97 +1 +1 1019.2 1018.3
15 10.07 ЮЗ 6-7
{7}
500 м туман ?/? +5.8 +5.4 97 +1 +1 1018.7 1017.8
18 10.07 Ю 5-7
{7}
500 м туман ?/? +6.5 +6.2 98 +2 +2 1017.9 1017.0
21 10.07 Ю 5-7
{8}
500 м туман ?/? +7.4 +7.1 98 +3 +3 1017.3 1016.4 +4.9
00 11.07 Ю 5-7
{7}
4000 м дымка {туман} 10/10 300 м
[St]
+9.0 +8.6 97 +5 +5 1016.1 1015.3
03 11.07 Ю 5-6
{7}
10 км 10/10 300 м
[St]
+9.5 +8.3 92 +6 +6 1015.5 1014.6
06 11.07 Ю 5-6
{9}
20 км 6/0
[Ci sp]
+10.4 +8.5 88 +7 +12 1013.6 1012.7
09 11.07 Ю 5-7
{7}
20 км 10/10 300 м
[Sc]
+9.1 +8.2 94 +6 +6 1013.3 1012.4 +11.0
12 11.07 Ю 4-5
{7}
20 км 10/10 300 м
[Sc]
+8.5 +7.9 96 +5 +5 1013.7 1012.8
15 11.07 ЮВ 5-6
{7}
20 км 10/10 600 м
[Sc]
+8.2 +7.6 96 +4 +4 1012.7 1011.8
18 11.07 ЮВ 5-6
{8}
20 км 10/10 600 м
[Sc]
+8.3 +7.8 97 +4 +4 1011.6 1010.7
21 11.07 ЮВ 6-8
{8}
10 км 10/10 200 м
[St]
+8.3 +7.9 97 +4 +4 1011.3 1010.5 +8.1
00 12.07 ЮВ 5-7
{8}
4000 м слаб. дождь {морось} 10/0 300 м
[As op]
+8.7 +8.4 98 +5 +6 1011.2 1010.3
03 12.07 ЮВ 5-6
{8}
4000 м слаб. дождь 10/0 300 м
[As op]
+8.8 +8.4 97 +5 +7 1010.7 1009.9
06 12.07 ЮВ 4-7
{7}
500 м туман {дождь} ?/? +8.5 +8.2 98 +5 +5 1010.1 1009.2
09 12.07 В 3-5
{8}
1000 м в посл. час дождь {туман} 10/0 300 м
[As op]
+8.3 +7.9 97 +5 +6 1010.0 1009.1 +8.9 2
12 12.07 ЮВ 4-6
{6}
500 м туман {дождь} ?/? +8.6 +8.3 98 +5 +5 1010.6 1009.7
15 12.07 ЮВ 3-5
{6}
500 м туман ?/? +8.4 +8.0 97 +6 +6 1010.1 1009.2
18 12.07 ЮВ 4-6
{8}
500 м дождь {туман} туман ?/? +8.6 +8.3 98 +5 +5 1009.8 1008.9
21 12.07 ЮВ 4-8
{9}
4000 м слаб. дождь {туман} 10/0 200 м
[As op]
+8.8 +8.4 97 +6 +6 1010.4 1009.6 +8.1 2
00 13.07 ЮВ 4-5
{8}
4000 м слаб. дождь {туман} 10/0 200 м
[As op]
+9.3 +8.9 97 +6 +8 1011.1 1010.2
03 13.07 ЮВ 5-7
{8}
2000 м слаб. дождь 10/0 200 м
[As op]
+9.3 +8.9 97 +6 +8 1011.1 1010.3
06 13.07 В 3-5
{7}
500 м слаб. дождь {туман} туман ?/? +8.6 +8.3 98 +6 +6 1011.4 1010.5
09 13.07 В 4-6
{6}
4000 м дымка {дождь, туман} 10/0 200 м
[As op]
+8.6 +8.2 97 +5 +5 1011.5 1010.7 +9.5 8
12 13.07 В 4-6
{6}
4000 м дымка {дождь, туман} 10/0 200 м
[As op]
+8.6 +8.3 98 +5 +5 1012.6 1011.8
15 13.07 ЮВ 4-5
{6}
4000 м дымка 10/0 200 м
[As op]
+8.9 +8.5 97 +6 +6 1013.1 1012.2
18 13.07 В 4-6
{6}
4000 м дымка 10/0 200 м
[As op]
+8.8 +8.4 97 +6 +6 1013.5 1012.6
21 13.07 ЮВ 4-6
{6}
10 км 10/0 300 м
[As op]
+9.0 +8.5 97 +6 +6 1014.1 1013.2 +8.4
00 14.07 ЮВ 4-6
{7}
500 м туман ?/? +9.1 +8.7 97 +6 +6 1014.8 1013.9
03 14.07 В 4-6
{9}
10 км {туман} 10/10 300 м
[St]
+9.5 +8.6 94 +7 +7 1015.2 1014.3
06 14.07 В 3-6
{7}
500 м туман ?/? +8.8 +8.4 97 +6 +6 1015.8 1014.9
09 14.07 В 2-5
{7}
500 м туман ?/? +8.8 +8.5 98 +7 +7 1016.0 1015.1 +9.6
12 14.07 В 3-4
{6}
500 м туман ?/? +8.2 +7.9 98 +5 +5 1016.5 1015.6
15 14.07 В 2-4
{5}
500 м туман ?/? +8.7 +8.3 97 +7 +7 1016.6 1015.7
18 14.07 В 2-4
{5}
500 м туман ?/? +8.5 +8.2 98 +6 +6 1016.8 1015.9
21 14.07 ЮВ 3-4
{5}
200 м туман ?/? +8.8 +8.5 98 +6 +6 1017.1 1016.2 +8.2
00 15.07 ЮВ 3-5
{6}
200 м туман ?/? +9.5 +9.2 98 +7 +7 1017.6 1016.8
03 15.07 ЮВ 4-5
{5}
10 км {туман} 8/8 300 м
[Sc]
+11.5 +10.1 91 +9 +11 1017.7 1016.8
06 15.07 Ю 3-5
{6}
20 км {туман} 4/0
[Ci sp]
+9.8 +9.2 96 +7 +14 1017.8 1016.9
09 15.07 Ю 5-8
{9}
500 м туман ?/? +9.5 +9.2 98 +6 +6 1017.7 1016.8 +11.7
12 15.07 Ю 4-6
{8}
500 м туман ?/? +8.8 +8.5 98 +6 +6 1018.3 1017.4
15 15.07 Ю 4-3
{8}
500 м туман ?/? +8.5 +8.2 98 +5 +5 1018.4 1017.5
18 15.07 Ю 4-5
{8}
500 м туман ?/? +8.7 +8.4 98 +5 +5 1018.1 1017.2
21 15.07 Ю 3-6
{8}
500 м туман ?/? +9.1 +8.8 98 +6 +6 1018.1 1017.2 +8.4
00 16.07 ЮЗ 4-4
{7}
500 м туман ?/? +9.7 +9.4 98 +7 +7 1018.0 1017.2
03 16.07 Ю 4-6
{7}
2000 м дымка {туман} 10/10 300 м
[St]
+10.3 +9.8 97 +8 +8 1017.9 1017.0
06 16.07 Ю 6-7
{8}
10 км {туман} 10/10 300 м
[St]
+10.7 +9.7 94 +7 +7 1016.5 1015.6
09 16.07 Ю 7-9
{9}
10 км 10/10 300 м
[Sc]
+10.4 +9.3 93 +7 +7 1015.4 1014.6
12 16.07 Ю 6-8
{10}
4000 м дымка 10/10 300 м
[St]
+9.2 +8.8 97 +5 +5 1016.2 1015.3
15 16.07 Ю 7-9
{10}
4000 м дымка 10/10 300 м
[St]
+9.4 +9.0 97 +5 +5 1015.6 1014.8
18 16.07 Ю 7-9
{10}
4000 м дымка 10/10 300 м
[St]
+9.4 +9.1 98 +5 +5 1014.5 1013.6
21 16.07 Ю 7-8
{9}
500 м туман ?/? +9.3 +9.0 98 +5 +5 1014.5 1013.7 +9.0
00 17.07 Ю 6-8
{9}
1000 м дымка {туман} 8/6 600 м
[Sc Ac trans]
+9.7 +9.4 98 +6 +7 1013.9 1013.0
03 17.07 Ю 7-9
{10}
20 км 6/3 600 м
[Sc Ac trans Ci fib]
+12.0 +10.5 91 +9 +11 1013.2 1012.3

 

Местоположение метеостанции Мыс Терпения (Сахалинская область, Россия): широта 48.65 долгота 144.70 высота над уровнем моря 6 м.

В архиве по умолчанию представлена погода на Мысе Терпения за последнюю неделю. Архивные данные за месяц целиком и за предыдущие месяцы, начиная с января 2011 года, Вы можете получить, выбрав интересующий диапазон дат из раскрывающегося списка и нажав кнопку "Ввод!".


*Определитесь, кто Вы:
робот инопланетянин человек

Внимание! Время в таблицах - всемирное. Для получения местного времени необходимо прибавить поправку, которая равна 11 ч.

Смотрите также архив погоды в соседних городах и на ближайших метеорологических станциях:

Погода в Поронайске (Сахалинская область, Россия) (133 км)
Погода в Макарове (Сахалинская область, Россия) (147 км)
Погода в Первомайском (Сахалинская область, Россия) (183 км)
Погода в Стародубском (Сахалинская область, Россия) (196 км)
Погода в Ильинском (Сахалинская область, Россия) (199 км)
Погода в Углегорске (Сахалинская область, Россия) (203 км)
Погода в Долинске (Сахалинская область, Россия) (204 км)
Погода в Пограничном (Сахалинская область, Россия) (208 км)
Погода в Мальково (Сахалинская область, Россия) (233 км)
Погода в Оноре (Сахалинская область, Россия) (237 км)

Пояснения к столбцам:

Ветер - указаны скорость ветра в м/с - средняя за 10 мин, порывы в срок и между сроками (в фигурных скобках) и направление, откуда дует ветер: С - северный, СВ - северо-восточный, В - восточный, ЮВ - юго-восточный, Ю - южный, ЮЗ - юго-западный, З - западный, СЗ - северо-западный.
Видимость - горизонтальная дальность видимости в метрах или километрах. При видимости от 1 до 10 км при отсутствии осадков обычно наблюдается дымка, при ухудшении видимости до 1 км и менее - туман. В сухую погоду видимость может ухудшаться дымом, пылью или мглою.
Явления - указаны атмосферные явления, наблюдавшиеся в срок или в последний час перед сроком; фигурными скобками обозначены явления, наблюдавшиеся между сроками (за 1-3 часа до срока); квадратными скобками обозначены град или гололедные отложения с указанием их диаметра в мм.
Облачность - указаны через наклонную черту общая и нижняя облачность в баллах и высота нижней границы облаков в метрах; квадратными скобками обозначены формы облаков: Ci - перистые, Cs - перисто-слоистые, Cc - перисто-кучевые, Ac - высококучевые, As - высокослоистые, Sc - слоисто-кучевые, Ns - слоисто-дождевые, Cu - кучевые, Cb - кучево-дождевые. Подробнее классификацию облаков см. в Атласе облаков (PDF).
T - Температура воздуха - температура, измеренная на высоте 2 м над землей.
Td - Температура точки росы - температура, при понижении до которой содержащийся в воздухе водяной пар достигнет насыщения.
f - Относительная влажность воздуха - влажноcть воздуха, измеренная на высоте 2 м над землей.
Te - Эффективная температура - температура, которую ощущает одетый по сезону человек в тени. Характеристика душности погоды. При расчете учитывается влияние влажности воздуха и скорости ветра на теплоощущения человека.
Tes - Эффективная температура на солнце - температура, которую ощущает человек, с поправкой на солнечный нагрев. Характеристика знойности погоды. Зависит от высоты солнца над горизонтом, облачности и скорости ветра. Ночью, в пасмурную погоду, а также при ветре 12 м/с и более поправка равна нулю.
P - Атмосферное давление - приведенное к уровню моря атмосферное давление.
Po - Атмосферное давление - измеренное на уровне метеостанции атмосферное давление.
Tmin - Минимальная температура - минимум температуры воздуха на высоте 2 м над землей.
Tmax - Максимальная температура - максимум температуры воздуха на высоте 2 м над землей.
R - Количество осадков - Количество выпавших осадков за период времени, мм. При наведении курсора мыши на число - период времени, за который выпало указанное количество осадков.
R24 - Количество осадков - Количество выпавших осадков за 24 часа, мм.
S - Снежный покров - Высота снежного покрова, см. При наведении курсора мыши на число - состояние снежного покрова и степень покрытия местности в баллах.